Time,TemperatureF,DewpointF,PressureIn,WindDirection,WindDirectionDegrees,WindSpeedMPH,WindSpeedGustMPH,Humidity,HourlyPrecipIn,Conditions,Clouds,dailyrainin,SoftwareType,DateUTC
2013-10-08 00:01:00,60.6,53.0,17.72,West,260,0.0,0.0,76,0.00,,,0.00,VWS V14.01,2013-10-08 04:01:00,
2013-10-08 00:06:00,60.6,53.0,17.72,West,260,0.0,0.0,76,0.00,,,0.00,VWS V14.01,2013-10-08 04:06:00,
2013-10-08 00:11:00,60.6,52.7,17.72,West,260,0.0,0.0,75,0.00,,,0.00,VWS V14.01,2013-10-08 04:11:00,
2013-10-08 00:16:00,60.6,52.7,17.72,West,260,0.0,0.0,75,0.00,,,0.00,VWS V14.01,2013-10-08 04:16:00,
2013-10-08 00:21:00,60.4,52.5,17.72,West,260,0.0,0.0,75,0.00,,,0.00,VWS V14.01,2013-10-08 04:21:00,
2013-10-08 00:26:00,60.4,52.1,17.72,West,260,0.0,0.0,74,0.00,,,0.00,VWS V14.01,2013-10-08 04:26:00,
2013-10-08 00:31:00,60.4,52.1,17.72,West,260,0.0,0.0,74,0.00,,,0.00,VWS V14.01,2013-10-08 04:31:00,
2013-10-08 00:36:00,60.3,52.0,17.72,West,260,0.0,0.0,74,0.00,,,0.00,VWS V14.01,2013-10-08 04:36:00,
2013-10-08 00:41:00,60.1,51.8,17.72,West,260,0.0,0.0,74,0.00,,,0.00,VWS V14.01,2013-10-08 04:41:00,
2013-10-08 00:46:00,60.1,51.8,17.72,West,260,0.0,0.0,74,0.00,,,0.00,VWS V14.01,2013-10-08 04:46:00,
2013-10-08 00:51:00,59.7,51.4,17.72,West,260,0.0,0.0,74,0.00,,,0.00,VWS V14.01,2013-10-08 04:51:00,
2013-10-08 00:56:00,59.4,51.1,17.72,West,260,0.0,0.0,74,0.00,,,0.00,VWS V14.01,2013-10-08 04:56:00,
2013-10-08 01:01:00,59.2,50.9,17.72,West,260,0.0,0.0,74,0.00,,,0.00,VWS V14.01,2013-10-08 05:01:00,
2013-10-08 01:06:00,59.0,50.7,17.72,West,260,0.0,0.0,74,0.00,,,0.00,VWS V14.01,2013-10-08 05:06:00,
2013-10-08 01:11:00,58.6,50.4,17.72,West,260,0.0,0.0,74,0.00,,,0.00,VWS V14.01,2013-10-08 05:11:00,
2013-10-08 01:16:00,58.5,50.6,17.72,West,260,0.0,0.0,75,0.00,,,0.00,VWS V14.01,2013-10-08 05:16:00,
2013-10-08 01:21:00,58.3,50.4,17.72,West,260,0.0,0.0,75,0.00,,,0.00,VWS V14.01,2013-10-08 05:21:00,
2013-10-08 01:26:00,58.1,50.2,17.72,West,260,0.0,0.0,75,0.00,,,0.00,VWS V14.01,2013-10-08 05:26:00,
2013-10-08 01:31:00,58.1,50.6,17.72,West,260,0.0,0.0,76,0.00,,,0.00,VWS V14.01,2013-10-08 05:31:00,
2013-10-08 01:36:00,57.9,50.4,17.72,West,260,0.0,0.0,76,0.00,,,0.00,VWS V14.01,2013-10-08 05:36:00,
2013-10-08 01:41:00,57.9,50.4,17.72,West,260,0.0,0.0,76,0.00,,,0.00,VWS V14.01,2013-10-08 05:41:00,
2013-10-08 01:46:00,57.9,50.4,17.72,West,260,0.0,0.0,76,0.00,,,0.00,VWS V14.01,2013-10-08 05:46:00,
2013-10-08 01:51:00,57.9,50.4,17.72,West,260,0.0,0.0,76,0.00,,,0.00,VWS V14.01,2013-10-08 05:51:00,
2013-10-08 01:56:00,57.9,50.0,17.72,West,260,0.0,0.0,75,0.00,,,0.00,VWS V14.01,2013-10-08 05:56:00,
2013-10-08 02:01:00,57.9,50.0,17.72,West,260,0.0,0.0,75,0.00,,,0.00,VWS V14.01,2013-10-08 06:01:00,
2013-10-08 02:06:00,57.7,49.5,17.72,West,260,0.0,0.0,74,0.00,,,0.00,VWS V14.01,2013-10-08 06:06:00,
2013-10-08 02:11:00,57.6,49.3,17.72,West,260,0.0,0.0,74,0.00,,,0.00,VWS V14.01,2013-10-08 06:11:00,
2013-10-08 02:16:00,57.2,49.0,17.72,West,260,0.0,0.0,74,0.00,,,0.00,VWS V14.01,2013-10-08 06:16:00,
2013-10-08 02:21:00,56.8,48.7,17.72,West,260,0.0,0.0,74,0.00,,,0.00,VWS V14.01,2013-10-08 06:21:00,
2013-10-08 02:26:00,56.7,48.5,17.72,West,260,0.0,0.0,74,0.00,,,0.00,VWS V14.01,2013-10-08 06:26:00,
2013-10-08 02:31:00,56.3,48.1,17.72,West,260,0.0,0.0,74,0.00,,,0.00,VWS V14.01,2013-10-08 06:31:00,
2013-10-08 02:36:00,55.9,47.8,17.72,West,260,0.0,0.0,74,0.00,,,0.00,VWS V14.01,2013-10-08 06:36:00,
2013-10-08 02:41:00,55.9,47.8,17.72,West,260,0.0,0.0,74,0.00,,,0.00,VWS V14.01,2013-10-08 06:41:00,
2013-10-08 02:46:00,55.9,47.4,17.72,West,260,0.0,0.0,73,0.00,,,0.00,VWS V14.01,2013-10-08 06:46:00,
2013-10-08 02:51:00,56.1,47.2,17.72,West,260,0.0,0.0,72,0.00,,,0.00,VWS V14.01,2013-10-08 06:51:00,
2013-10-08 02:56:00,56.3,47.4,17.72,West,260,0.0,0.0,72,0.00,,,0.00,VWS V14.01,2013-10-08 06:56:00,
2013-10-08 03:01:00,56.1,46.9,17.72,West,260,0.0,0.0,71,0.00,,,0.00,VWS V14.01,2013-10-08 07:01:00,
2013-10-08 03:06:00,56.1,46.9,17.72,West,260,0.0,0.0,71,0.00,,,0.00,VWS V14.01,2013-10-08 07:06:00,
2013-10-08 03:11:00,55.9,46.7,17.72,West,260,0.0,0.0,71,0.00,,,0.00,VWS V14.01,2013-10-08 07:11:00,
2013-10-08 03:16:00,55.8,46.1,17.72,West,260,0.0,0.0,70,0.00,,,0.00,VWS V14.01,2013-10-08 07:16:00,
2013-10-08 03:21:00,55.6,46.0,17.72,West,260,0.0,0.0,70,0.00,,,0.00,VWS V14.01,2013-10-08 07:21:00,
2013-10-08 03:26:00,55.4,45.8,17.72,West,260,0.0,0.0,70,0.00,,,0.00,VWS V14.01,2013-10-08 07:26:00,
2013-10-08 03:31:00,55.2,46.0,17.72,West,260,0.0,0.0,71,0.00,,,0.00,VWS V14.01,2013-10-08 07:31:00,
2013-10-08 03:36:00,55.0,45.8,17.72,West,260,0.0,0.0,71,0.00,,,0.00,VWS V14.01,2013-10-08 07:36:00,
2013-10-08 03:41:00,55.0,45.8,17.72,West,260,0.0,0.0,71,0.00,,,0.00,VWS V14.01,2013-10-08 07:41:00,
2013-10-08 03:46:00,54.9,45.7,17.72,West,260,0.0,0.0,71,0.00,,,0.00,VWS V14.01,2013-10-08 07:46:00,
2013-10-08 03:51:00,54.9,45.7,17.72,West,260,0.0,0.0,71,0.00,,,0.00,VWS V14.01,2013-10-08 07:51:00,
2013-10-08 03:56:00,54.7,45.5,17.72,West,260,0.0,0.0,71,0.00,,,0.00,VWS V14.01,2013-10-08 07:56:00,
2013-10-08 04:01:00,54.5,45.3,17.72,West,260,0.0,0.0,71,0.00,,,0.00,VWS V14.01,2013-10-08 08:01:00,
2013-10-08 04:06:00,54.5,45.3,17.72,West,260,0.0,0.0,71,0.00,,,0.00,VWS V14.01,2013-10-08 08:06:00,
2013-10-08 04:11:00,54.5,45.3,17.72,West,260,0.0,0.0,71,0.00,,,0.00,VWS V14.01,2013-10-08 08:11:00,
2013-10-08 04:16:00,54.5,45.3,17.72,West,260,0.0,0.0,71,0.00,,,0.00,VWS V14.01,2013-10-08 08:16:00,
2013-10-08 04:21:00,54.1,45.3,17.72,West,259,0.0,0.0,72,0.00,,,0.00,VWS V14.01,2013-10-08 08:21:00,
2013-10-08 04:26:00,54.1,45.3,17.72,West,259,0.0,0.0,72,0.00,,,0.00,VWS V14.01,2013-10-08 08:26:00,
2013-10-08 04:31:00,54.3,45.5,17.72,West,259,0.0,0.0,72,0.00,,,0.00,VWS V14.01,2013-10-08 08:31:00,
2013-10-08 04:36:00,54.3,45.5,17.72,West,259,0.0,0.0,72,0.00,,,0.00,VWS V14.01,2013-10-08 08:36:00,
2013-10-08 04:41:00,54.1,45.3,17.72,West,259,0.0,0.0,72,0.00,,,0.00,VWS V14.01,2013-10-08 08:41:00,
2013-10-08 04:46:00,54.1,45.3,17.72,West,259,0.0,0.0,72,0.00,,,0.00,VWS V14.01,2013-10-08 08:46:00,
2013-10-08 04:51:00,53.6,44.8,17.72,West,259,0.0,0.0,72,0.00,,,0.00,VWS V14.01,2013-10-08 08:51:00,
2013-10-08 04:56:00,53.2,44.5,17.72,West,259,0.0,0.0,72,0.00,,,0.00,VWS V14.01,2013-10-08 08:56:00,
2013-10-08 05:01:00,53.1,44.3,17.72,West,259,0.0,0.0,72,0.00,,,0.00,VWS V14.01,2013-10-08 09:01:00,
2013-10-08 05:06:00,53.1,44.7,17.72,West,259,0.0,0.0,73,0.00,,,0.00,VWS V14.01,2013-10-08 09:06:00,
2013-10-08 05:11:00,52.5,44.1,17.72,West,259,0.0,0.0,73,0.00,,,0.00,VWS V14.01,2013-10-08 09:11:00,
2013-10-08 05:16:00,52.3,44.0,17.72,West,259,0.0,0.0,73,0.00,,,0.00,VWS V14.01,2013-10-08 09:16:00,
2013-10-08 05:21:00,52.3,44.3,17.72,West,259,0.0,0.0,74,0.00,,,0.00,VWS V14.01,2013-10-08 09:21:00,
2013-10-08 05:26:00,52.3,44.3,17.72,West,259,0.0,0.0,74,0.00,,,0.00,VWS V14.01,2013-10-08 09:26:00,
2013-10-08 05:31:00,52.3,44.3,17.72,West,259,0.0,0.0,74,0.00,,,0.00,VWS V14.01,2013-10-08 09:31:00,
2013-10-08 05:36:00,52.2,44.5,17.72,West,259,0.0,0.0,75,0.00,,,0.00,VWS V14.01,2013-10-08 09:36:00,
2013-10-08 05:41:00,52.2,44.5,17.72,West,259,0.0,0.0,75,0.00,,,0.00,VWS V14.01,2013-10-08 09:41:00,
2013-10-08 05:46:00,52.2,44.5,17.72,West,259,0.0,0.0,75,0.00,,,0.00,VWS V14.01,2013-10-08 09:46:00,
2013-10-08 05:50:00,51.8,44.1,17.72,West,259,0.0,0.0,75,0.00,,,0.00,VWS V14.01,2013-10-08 09:50:00,
2013-10-08 05:55:00,51.6,44.3,17.72,West,259,0.0,0.0,76,0.00,,,0.00,VWS V14.01,2013-10-08 09:55:00,
2013-10-08 06:00:00,51.4,44.1,17.72,West,259,0.0,0.0,76,0.00,,,0.00,VWS V14.01,2013-10-08 10:00:00,
2013-10-08 06:05:00,51.1,43.8,17.72,West,259,0.0,0.0,76,0.00,,,0.00,VWS V14.01,2013-10-08 10:05:00,
2013-10-08 06:10:00,50.9,43.6,17.72,West,259,0.0,0.0,76,0.00,,,0.00,VWS V14.01,2013-10-08 10:10:00,
2013-10-08 06:15:00,50.7,43.8,17.72,West,259,0.0,0.0,77,0.00,,,0.00,VWS V14.01,2013-10-08 10:15:00,
2013-10-08 06:20:00,50.5,43.6,17.72,West,259,0.0,0.0,77,0.00,,,0.00,VWS V14.01,2013-10-08 10:20:00,
2013-10-08 06:25:00,50.2,43.3,17.72,West,259,0.0,0.0,77,0.00,,,0.00,VWS V14.01,2013-10-08 10:25:00,
2013-10-08 06:30:00,50.0,43.1,17.72,West,259,0.0,0.0,77,0.00,,,0.00,VWS V14.01,2013-10-08 10:30:00,
2013-10-08 06:35:00,49.6,43.1,17.72,West,259,0.0,0.0,78,0.00,,,0.00,VWS V14.01,2013-10-08 10:35:00,
2013-10-08 06:40:00,49.5,43.2,17.72,West,259,0.0,0.0,79,0.00,,,0.00,VWS V14.01,2013-10-08 10:40:00,
2013-10-08 06:45:00,49.3,43.0,17.72,West,259,0.0,0.0,79,0.00,,,0.00,VWS V14.01,2013-10-08 10:45:00,
2013-10-08 06:50:00,49.1,42.9,17.72,West,259,0.0,0.0,79,0.00,,,0.00,VWS V14.01,2013-10-08 10:50:00,
2013-10-08 06:55:00,48.9,43.0,17.72,West,259,0.0,0.0,80,0.00,,,0.00,VWS V14.01,2013-10-08 10:55:00,
2013-10-08 07:00:00,48.7,42.9,17.72,West,259,0.0,0.0,80,0.00,,,0.00,VWS V14.01,2013-10-08 11:00:00,
2013-10-08 07:05:00,48.7,42.9,17.72,West,259,0.0,0.0,80,0.00,,,0.00,VWS V14.01,2013-10-08 11:05:00,
2013-10-08 07:10:00,48.6,42.7,17.72,West,259,0.0,0.0,80,0.00,,,0.00,VWS V14.01,2013-10-08 11:10:00,
2013-10-08 07:15:00,48.6,43.0,17.72,West,259,0.0,0.0,81,0.00,,,0.00,VWS V14.01,2013-10-08 11:15:00,
2013-10-08 07:20:00,48.4,42.8,17.72,West,259,0.0,0.0,81,0.00,,,0.00,VWS V14.01,2013-10-08 11:20:00,
2013-10-08 07:25:00,48.4,43.2,17.72,West,259,0.0,0.0,82,0.00,,,0.00,VWS V14.01,2013-10-08 11:25:00,
2013-10-08 07:30:00,48.4,43.2,17.72,West,259,0.0,0.0,82,0.00,,,0.00,VWS V14.01,2013-10-08 11:30:00,
2013-10-08 07:35:00,48.6,43.6,17.72,West,259,0.0,0.0,83,0.00,,,0.00,VWS V14.01,2013-10-08 11:35:00,
2013-10-08 07:40:00,48.6,43.6,17.72,West,259,0.0,0.0,83,0.00,,,0.00,VWS V14.01,2013-10-08 11:40:00,
2013-10-08 07:45:00,48.7,44.1,17.72,West,259,0.0,0.0,84,0.00,,,0.00,VWS V14.01,2013-10-08 11:45:00,
2013-10-08 07:50:00,48.9,44.3,17.72,West,259,0.0,0.0,84,0.00,,,0.00,VWS V14.01,2013-10-08 11:50:00,
2013-10-08 07:55:00,49.1,44.5,17.72,West,259,0.0,0.0,84,0.00,,,0.00,VWS V14.01,2013-10-08 11:55:00,
2013-10-08 08:00:00,49.3,45.0,17.72,West,259,0.0,0.0,85,0.00,,,0.00,VWS V14.01,2013-10-08 12:00:00,
2013-10-08 08:05:00,49.5,45.2,17.72,West,259,0.0,0.0,85,0.00,,,0.00,VWS V14.01,2013-10-08 12:05:00,
2013-10-08 08:10:00,50.0,45.7,17.72,West,259,0.0,0.0,85,0.00,,,0.00,VWS V14.01,2013-10-08 12:10:00,
2013-10-08 08:15:00,50.5,46.2,17.72,West,259,0.0,0.0,85,0.00,,,0.00,VWS V14.01,2013-10-08 12:15:00,
2013-10-08 08:20:00,50.9,46.6,17.72,West,259,0.0,0.0,85,0.00,,,0.00,VWS V14.01,2013-10-08 12:20:00,
2013-10-08 08:25:00,51.6,47.6,17.72,SE,146,0.0,0.0,86,0.00,,,0.00,VWS V14.01,2013-10-08 12:25:00,
2013-10-08 08:30:00,52.5,48.5,17.72,West,281,2.2,2.2,86,0.00,,,0.00,VWS V14.01,2013-10-08 12:30:00,
2013-10-08 08:35:00,53.2,49.2,17.72,WSW,247,0.0,0.0,86,0.00,,,0.00,VWS V14.01,2013-10-08 12:35:00,
2013-10-08 08:40:00,54.5,50.4,17.72,WSW,247,0.0,0.0,86,0.00,,,0.00,VWS V14.01,2013-10-08 12:40:00,
2013-10-08 08:45:00,55.2,50.8,17.72,WSW,247,0.0,0.0,85,0.00,,,0.00,VWS V14.01,2013-10-08 12:45:00,
2013-10-08 08:50:00,56.1,51.7,17.72,WSW,241,0.0,0.0,85,0.00,,,0.00,VWS V14.01,2013-10-08 12:50:00,
2013-10-08 08:55:00,56.7,51.9,17.72,SSW,213,0.0,0.0,84,0.00,,,0.00,VWS V14.01,2013-10-08 12:55:00,
2013-10-08 09:00:00,57.2,52.1,17.72,SSW,213,0.0,0.0,83,0.00,,,0.00,VWS V14.01,2013-10-08 13:00:00,
2013-10-08 09:05:00,57.4,51.9,17.72,SSW,211,0.0,0.0,82,0.00,,,0.00,VWS V14.01,2013-10-08 13:05:00,
2013-10-08 09:10:00,58.3,52.2,17.72,South,189,0.0,0.0,80,0.00,,,0.00,VWS V14.01,2013-10-08 13:10:00,
2013-10-08 09:15:00,58.8,52.3,17.72,South,189,0.0,0.0,79,0.00,,,0.00,VWS V14.01,2013-10-08 13:15:00,
2013-10-08 09:20:00,60.4,52.1,17.72,SW,233,0.0,0.0,74,0.00,,,0.00,VWS V14.01,2013-10-08 13:20:00,
2013-10-08 09:25:00,61.2,51.7,17.72,SSE,151,0.0,0.0,71,0.00,,,0.00,VWS V14.01,2013-10-08 13:25:00,
2013-10-08 09:30:00,61.9,50.8,17.72,SSW,197,0.0,0.0,67,0.00,,,0.00,VWS V14.01,2013-10-08 13:30:00,
2013-10-08 09:35:00,62.8,50.8,17.72,SSW,196,0.0,0.0,65,0.00,,,0.00,VWS V14.01,2013-10-08 13:35:00,
2013-10-08 09:40:00,63.0,49.8,17.72,South,179,0.0,0.0,62,0.00,,,0.00,VWS V14.01,2013-10-08 13:40:00,
2013-10-08 09:45:00,63.1,46.2,17.72,SW,229,0.0,2.7,54,0.00,,,0.00,VWS V14.01,2013-10-08 13:45:00,
2013-10-08 09:50:00,63.1,44.7,17.72,SSE,159,0.0,0.0,51,0.00,,,0.00,VWS V14.01,2013-10-08 13:50:00,
2013-10-08 09:55:00,63.3,43.8,17.72,SE,131,0.0,0.0,49,0.00,,,0.00,VWS V14.01,2013-10-08 13:55:00,
2013-10-08 10:00:00,63.7,43.6,17.72,NW,317,0.0,0.0,48,0.00,,,0.00,VWS V14.01,2013-10-08 14:00:00,
2013-10-08 10:05:00,64.2,44.7,17.72,SSW,213,0.0,0.0,49,0.00,,,0.00,VWS V14.01,2013-10-08 14:05:00,
2013-10-08 10:10:00,64.4,44.8,17.72,WSW,255,0.0,0.0,49,0.00,,,0.00,VWS V14.01,2013-10-08 14:10:00,
2013-10-08 10:15:00,64.6,43.4,17.72,SW,223,0.0,0.0,46,0.00,,,0.00,VWS V14.01,2013-10-08 14:15:00,
2013-10-08 10:20:00,64.6,43.4,17.72,SSW,202,0.0,0.0,46,0.00,,,0.00,VWS V14.01,2013-10-08 14:20:00,
2013-10-08 10:25:00,64.9,43.7,17.72,WSW,252,3.6,3.6,46,0.00,,,0.00,VWS V14.01,2013-10-08 14:25:00,
2013-10-08 10:30:00,65.3,43.4,17.72,SE,143,0.0,0.0,45,0.00,,,0.00,VWS V14.01,2013-10-08 14:30:00,
2013-10-08 10:35:00,65.5,41.8,17.72,West,265,0.0,0.0,42,0.00,,,0.00,VWS V14.01,2013-10-08 14:35:00,
2013-10-08 10:40:00,65.3,41.6,17.72,WNW,286,0.0,0.0,42,0.00,,,0.00,VWS V14.01,2013-10-08 14:40:00,
2013-10-08 10:45:00,65.7,42.6,17.72,SSW,197,0.0,0.0,43,0.00,,,0.00,VWS V14.01,2013-10-08 14:45:00,
2013-10-08 10:50:00,65.7,42.0,17.72,SSE,160,4.0,4.0,42,0.00,,,0.00,VWS V14.01,2013-10-08 14:50:00,
2013-10-08 10:55:00,65.8,41.5,17.72,SSW,200,0.0,0.0,41,0.00,,,0.00,VWS V14.01,2013-10-08 14:55:00,
2013-10-08 11:00:00,66.2,41.8,17.72,SSW,201,0.0,0.0,41,0.00,,,0.00,VWS V14.01,2013-10-08 15:00:00,
2013-10-08 11:05:00,66.2,39.9,17.72,WSW,239,3.6,3.6,38,0.00,,,0.00,VWS V14.01,2013-10-08 15:05:00,
2013-10-08 11:10:00,65.8,40.2,17.72,SSW,200,2.2,2.2,39,0.00,,,0.00,VWS V14.01,2013-10-08 15:10:00,
2013-10-08 11:15:00,65.7,40.0,17.72,WSW,253,0.0,0.0,39,0.00,,,0.00,VWS V14.01,2013-10-08 15:15:00,
2013-10-08 11:20:00,65.8,40.2,17.72,SW,231,0.0,4.0,39,0.00,,,0.00,VWS V14.01,2013-10-08 15:20:00,
2013-10-08 11:25:00,65.8,40.2,17.72,SW,219,0.0,0.0,39,0.00,,,0.00,VWS V14.01,2013-10-08 15:25:00,
2013-10-08 11:30:00,65.8,40.9,17.72,SW,222,0.0,0.0,40,0.00,,,0.00,VWS V14.01,2013-10-08 15:30:00,
2013-10-08 11:35:00,66.2,41.2,17.72,SSW,210,0.0,0.0,40,0.00,,,0.00,VWS V14.01,2013-10-08 15:35:00,
2013-10-08 11:40:00,66.2,41.2,17.72,WSW,241,0.0,0.0,40,0.00,,,0.00,VWS V14.01,2013-10-08 15:40:00,
2013-10-08 11:45:00,66.6,41.5,17.72,SW,226,0.0,0.0,40,0.00,,,0.00,VWS V14.01,2013-10-08 15:45:00,
2013-10-08 11:50:00,66.9,41.2,17.72,SW,221,3.1,3.1,39,0.00,,,0.00,VWS V14.01,2013-10-08 15:50:00,
2013-10-08 11:55:00,67.1,41.3,17.72,SW,222,0.0,0.0,39,0.00,,,0.00,VWS V14.01,2013-10-08 15:55:00,
2013-10-08 12:00:00,67.3,41.5,17.72,SW,234,3.1,3.1,39,0.00,,,0.00,VWS V14.01,2013-10-08 16:00:00,
2013-10-08 12:05:00,67.3,41.5,17.72,WSW,248,0.0,0.0,39,0.00,,,0.00,VWS V14.01,2013-10-08 16:05:00,
2013-10-08 12:10:00,67.6,41.2,17.72,SW,230,0.0,0.0,38,0.00,,,0.00,VWS V14.01,2013-10-08 16:10:00,
2013-10-08 12:15:00,67.6,40.5,17.72,SW,230,0.0,0.0,37,0.00,,,0.00,VWS V14.01,2013-10-08 16:15:00,
2013-10-08 12:20:00,67.5,39.6,17.72,West,260,0.0,0.0,36,0.00,,,0.00,VWS V14.01,2013-10-08 16:20:00,
2013-10-08 12:25:00,67.5,39.6,17.72,West,266,0.0,0.0,36,0.00,,,0.00,VWS V14.01,2013-10-08 16:25:00,
2013-10-08 12:30:00,67.3,39.4,17.72,South,191,3.6,3.6,36,0.00,,,0.00,VWS V14.01,2013-10-08 16:30:00,
2013-10-08 12:35:00,66.9,39.1,17.72,SW,223,0.0,0.0,36,0.00,,,0.00,VWS V14.01,2013-10-08 16:35:00,
2013-10-08 12:40:00,67.1,39.3,17.72,SW,222,0.0,0.0,36,0.00,,,0.00,VWS V14.01,2013-10-08 16:40:00,
2013-10-08 12:45:00,67.3,39.4,17.72,SW,226,2.7,2.7,36,0.00,,,0.00,VWS V14.01,2013-10-08 16:45:00,
2013-10-08 12:50:00,67.5,39.6,17.72,South,184,0.0,0.0,36,0.00,,,0.00,VWS V14.01,2013-10-08 16:50:00,
2013-10-08 12:55:00,67.6,39.8,17.72,SW,236,2.2,2.2,36,0.00,,,0.00,VWS V14.01,2013-10-08 16:55:00,
2013-10-08 13:00:00,67.8,39.9,17.72,SW,232,0.0,0.0,36,0.00,,,0.00,VWS V14.01,2013-10-08 17:00:00,
2013-10-08 13:05:00,67.8,39.2,17.72,South,173,0.0,0.0,35,0.00,,,0.00,VWS V14.01,2013-10-08 17:05:00,
2013-10-08 13:10:00,67.8,39.9,17.72,WSW,245,0.0,0.0,36,0.00,,,0.00,VWS V14.01,2013-10-08 17:10:00,
2013-10-08 13:15:00,67.3,38.7,17.72,SSW,211,0.0,0.0,35,0.00,,,0.00,VWS V14.01,2013-10-08 17:15:00,
2013-10-08 13:20:00,67.1,38.6,17.72,WSW,239,0.0,0.0,35,0.00,,,0.00,VWS V14.01,2013-10-08 17:20:00,
2013-10-08 13:25:00,67.5,39.6,17.72,SW,224,3.6,3.6,36,0.00,,,0.00,VWS V14.01,2013-10-08 17:25:00,
2013-10-08 13:30:00,67.3,38.7,17.72,South,169,3.1,3.1,35,0.00,,,0.00,VWS V14.01,2013-10-08 17:30:00,
2013-10-08 13:35:00,66.9,37.7,17.72,South,170,0.0,0.0,34,0.00,,,0.00,VWS V14.01,2013-10-08 17:35:00,
2013-10-08 13:40:00,66.9,37.7,17.72,SE,136,0.0,0.0,34,0.00,,,0.00,VWS V14.01,2013-10-08 17:40:00,
2013-10-08 13:45:00,66.6,38.1,17.72,NW,306,0.0,0.0,35,0.00,,,0.00,VWS V14.01,2013-10-08 17:45:00,
2013-10-08 13:50:00,66.6,38.1,17.72,NW,306,0.0,0.0,35,0.00,,,0.00,VWS V14.01,2013-10-08 17:50:00,
2013-10-08 13:55:00,67.5,38.9,17.72,SSW,204,0.0,0.0,35,0.00,,,0.00,VWS V14.01,2013-10-08 17:55:00,
2013-10-08 14:00:00,67.6,39.0,17.72,SW,222,0.0,0.0,35,0.00,,,0.00,VWS V14.01,2013-10-08 18:00:00,
2013-10-08 14:05:00,68.0,38.6,17.72,SW,222,0.0,0.0,34,0.00,,,0.00,VWS V14.01,2013-10-08 18:05:00,
2013-10-08 14:10:00,68.0,38.6,17.72,SW,222,0.0,0.0,34,0.00,,,0.00,VWS V14.01,2013-10-08 18:10:00,
2013-10-08 14:15:00,68.7,39.2,17.72,SW,222,0.0,0.0,34,0.00,,,0.00,VWS V14.01,2013-10-08 18:15:00,
2013-10-08 14:20:00,68.5,39.1,17.72,SSW,197,0.0,0.0,34,0.00,,,0.00,VWS V14.01,2013-10-08 18:20:00,
2013-10-08 14:25:00,68.5,39.1,17.72,SSW,192,0.0,0.0,34,0.00,,,0.00,VWS V14.01,2013-10-08 18:25:00,
2013-10-08 14:30:00,68.5,39.1,17.72,ESE,122,0.0,0.0,34,0.00,,,0.00,VWS V14.01,2013-10-08 18:30:00,
2013-10-08 14:35:00,68.4,38.9,17.72,East,95,0.0,0.0,34,0.00,,,0.00,VWS V14.01,2013-10-08 18:35:00,
2013-10-08 14:40:00,68.2,38.8,17.72,WSW,255,0.0,2.7,34,0.00,,,0.00,VWS V14.01,2013-10-08 18:40:00,
2013-10-08 14:45:00,68.0,37.8,17.72,SW,231,0.0,0.0,33,0.00,,,0.00,VWS V14.01,2013-10-08 18:45:00,
2013-10-08 14:50:00,67.8,38.5,17.72,WSW,241,0.0,2.7,34,0.00,,,0.00,VWS V14.01,2013-10-08 18:50:00,
2013-10-08 14:55:00,67.8,38.5,17.72,WSW,238,0.0,0.0,34,0.00,,,0.00,VWS V14.01,2013-10-08 18:55:00,
2013-10-08 15:00:00,67.6,38.3,17.72,NE,39,0.0,0.0,34,0.00,,,0.00,VWS V14.01,2013-10-08 19:00:00,
2013-10-08 15:05:00,67.5,38.1,17.72,South,190,0.0,0.0,34,0.00,,,0.00,VWS V14.01,2013-10-08 19:05:00,
2013-10-08 15:10:00,67.3,38.0,17.72,WSW,256,0.0,0.0,34,0.00,,,0.00,VWS V14.01,2013-10-08 19:10:00,
2013-10-08 15:15:00,67.3,38.0,17.72,South,186,0.0,0.0,34,0.00,,,0.00,VWS V14.01,2013-10-08 19:15:00,
2013-10-08 15:20:00,66.9,37.7,17.72,SSE,153,0.0,0.0,34,0.00,,,0.00,VWS V14.01,2013-10-08 19:20:00,
2013-10-08 15:25:00,66.7,37.5,17.72,South,181,0.0,0.0,34,0.00,,,0.00,VWS V14.01,2013-10-08 19:25:00,
2013-10-08 15:30:00,66.7,37.5,17.72,WNW,296,0.0,0.0,34,0.00,,,0.00,VWS V14.01,2013-10-08 19:30:00,
2013-10-08 15:35:00,66.6,37.3,17.72,SSE,152,2.7,2.7,34,0.00,,,0.00,VWS V14.01,2013-10-08 19:35:00,
2013-10-08 15:40:00,66.4,37.2,17.72,SW,220,0.0,0.0,34,0.00,,,0.00,VWS V14.01,2013-10-08 19:40:00,
2013-10-08 15:45:00,66.2,37.0,17.72,SW,226,0.0,0.0,34,0.00,,,0.00,VWS V14.01,2013-10-08 19:45:00,
2013-10-08 15:50:00,66.0,36.9,17.72,SW,214,0.0,0.0,34,0.00,,,0.00,VWS V14.01,2013-10-08 19:50:00,
2013-10-08 15:55:00,65.8,37.5,17.72,SSW,213,0.0,0.0,35,0.00,,,0.00,VWS V14.01,2013-10-08 19:55:00,
2013-10-08 16:00:00,65.7,37.3,17.72,WSW,252,3.6,3.6,35,0.00,,,0.00,VWS V14.01,2013-10-08 20:00:00,
2013-10-08 16:05:00,65.5,37.1,17.72,SE,139,0.0,0.0,35,0.00,,,0.00,VWS V14.01,2013-10-08 20:05:00,
2013-10-08 16:10:00,65.3,36.2,17.72,SW,218,2.2,2.2,34,0.00,,,0.00,VWS V14.01,2013-10-08 20:10:00,
2013-10-08 16:15:00,65.3,36.2,17.72,WSW,238,0.0,0.0,34,0.00,,,0.00,VWS V14.01,2013-10-08 20:15:00,
2013-10-08 16:20:00,65.1,36.1,17.72,South,189,0.0,0.0,34,0.00,,,0.00,VWS V14.01,2013-10-08 20:20:00,
2013-10-08 16:25:00,65.1,36.8,17.72,SW,225,0.0,0.0,35,0.00,,,0.00,VWS V14.01,2013-10-08 20:25:00,
2013-10-08 16:30:00,65.1,36.8,17.72,SW,225,0.0,0.0,35,0.00,,,0.00,VWS V14.01,2013-10-08 20:30:00,
2013-10-08 16:35:00,64.9,36.7,17.72,SW,225,0.0,0.0,35,0.00,,,0.00,VWS V14.01,2013-10-08 20:35:00,
2013-10-08 16:40:00,64.6,36.3,17.72,SW,225,0.0,0.0,35,0.00,,,0.00,VWS V14.01,2013-10-08 20:40:00,
2013-10-08 16:45:00,64.4,36.2,17.72,SW,225,0.0,0.0,35,0.00,,,0.00,VWS V14.01,2013-10-08 20:45:00,
2013-10-08 16:50:00,64.4,36.2,17.72,SW,225,0.0,0.0,35,0.00,,,0.00,VWS V14.01,2013-10-08 20:50:00,
2013-10-08 16:55:00,64.2,37.4,17.72,SW,225,0.0,0.0,37,0.00,,,0.00,VWS V14.01,2013-10-08 20:55:00,
2013-10-08 17:00:00,63.9,37.8,17.72,SW,225,0.0,0.0,38,0.00,,,0.00,VWS V14.01,2013-10-08 21:00:00,
2013-10-08 17:05:00,63.9,37.1,17.72,SW,225,0.0,0.0,37,0.00,,,0.00,VWS V14.01,2013-10-08 21:05:00,
2013-10-08 17:10:00,63.5,37.5,17.72,SW,225,0.0,0.0,38,0.00,,,0.00,VWS V14.01,2013-10-08 21:10:00,
2013-10-08 17:15:00,63.1,37.8,17.72,SW,225,0.0,0.0,39,0.00,,,0.00,VWS V14.01,2013-10-08 21:15:00,
2013-10-08 17:20:00,63.1,37.8,17.72,SW,225,0.0,0.0,39,0.00,,,0.00,VWS V14.01,2013-10-08 21:20:00,
2013-10-08 17:25:00,62.8,38.1,17.72,SW,225,0.0,0.0,40,0.00,,,0.00,VWS V14.01,2013-10-08 21:25:00,
2013-10-08 17:30:00,62.6,38.0,17.72,SW,225,0.0,0.0,40,0.00,,,0.00,VWS V14.01,2013-10-08 21:30:00,
2013-10-08 17:35:00,62.2,38.9,17.72,SW,225,0.0,0.0,42,0.00,,,0.00,VWS V14.01,2013-10-08 21:35:00,
2013-10-08 17:40:00,62.1,38.7,17.72,SW,225,0.0,0.0,42,0.00,,,0.00,VWS V14.01,2013-10-08 21:40:00,
2013-10-08 17:45:00,61.5,39.4,17.72,SW,225,0.0,0.0,44,0.00,,,0.00,VWS V14.01,2013-10-08 21:45:00,
2013-10-08 17:50:00,61.0,38.9,17.72,SW,225,0.0,0.0,44,0.00,,,0.00,VWS V14.01,2013-10-08 21:50:00,
2013-10-08 17:55:00,60.6,39.2,17.72,SW,225,0.0,0.0,45,0.00,,,0.00,VWS V14.01,2013-10-08 21:55:00,
2013-10-08 18:00:00,60.6,39.2,17.72,SW,225,0.0,0.0,45,0.00,,,0.00,VWS V14.01,2013-10-08 22:00:00,
2013-10-08 18:05:00,59.7,39.5,17.72,SW,225,0.0,0.0,47,0.00,,,0.00,VWS V14.01,2013-10-08 22:05:00,
2013-10-08 18:10:00,59.2,39.0,17.72,SW,225,0.0,0.0,47,0.00,,,0.00,VWS V14.01,2013-10-08 22:10:00,
2013-10-08 18:15:00,59.0,39.4,17.72,SW,225,0.0,0.0,48,0.00,,,0.00,VWS V14.01,2013-10-08 22:15:00,
2013-10-08 18:20:00,58.5,39.4,17.72,SW,225,0.0,0.0,49,0.00,,,0.00,VWS V14.01,2013-10-08 22:20:00,
2013-10-08 18:25:00,58.3,39.7,17.72,SW,225,0.0,0.0,50,0.00,,,0.00,VWS V14.01,2013-10-08 22:25:00,
2013-10-08 18:30:00,57.6,39.1,17.72,SW,225,0.0,0.0,50,0.00,,,0.00,VWS V14.01,2013-10-08 22:30:00,
2013-10-08 18:35:00,57.6,39.1,17.72,SW,225,0.0,0.0,50,0.00,,,0.00,VWS V14.01,2013-10-08 22:35:00,
2013-10-08 18:40:00,57.0,39.6,17.72,SW,225,0.0,0.0,52,0.00,,,0.00,VWS V14.01,2013-10-08 22:40:00,
2013-10-08 18:45:00,57.0,39.6,17.72,SW,225,0.0,0.0,52,0.00,,,0.00,VWS V14.01,2013-10-08 22:45:00,
2013-10-08 18:50:00,56.3,39.4,17.72,SW,225,0.0,0.0,53,0.00,,,0.00,VWS V14.01,2013-10-08 22:50:00,
2013-10-08 18:54:00,55.9,39.5,17.72,SW,225,0.0,0.0,54,0.00,,,0.00,VWS V14.01,2013-10-08 22:54:00,
2013-10-08 18:59:00,55.6,39.7,17.72,SW,225,0.0,0.0,55,0.00,,,0.00,VWS V14.01,2013-10-08 22:59:00,
2013-10-08 19:04:00,55.6,39.7,17.72,SW,225,0.0,0.0,55,0.00,,,0.00,VWS V14.01,2013-10-08 23:04:00,
2013-10-08 19:09:00,54.9,39.9,17.72,SW,225,0.0,0.0,57,0.00,,,0.00,VWS V14.01,2013-10-08 23:09:00,
2013-10-08 19:14:00,54.3,39.9,17.72,SW,225,0.0,0.0,58,0.00,,,0.00,VWS V14.01,2013-10-08 23:14:00,
2013-10-08 19:19:00,54.0,39.5,17.72,SW,225,0.0,0.0,58,0.00,,,0.00,VWS V14.01,2013-10-08 23:19:00,
2013-10-08 19:24:00,53.8,39.8,17.72,SW,225,0.0,0.0,59,0.00,,,0.00,VWS V14.01,2013-10-08 23:24:00,
2013-10-08 19:29:00,53.2,39.7,17.72,SW,225,0.0,0.0,60,0.00,,,0.00,VWS V14.01,2013-10-08 23:29:00,
2013-10-08 19:34:00,53.1,40.0,17.72,SW,225,0.0,0.0,61,0.00,,,0.00,VWS V14.01,2013-10-08 23:34:00,
2013-10-08 19:39:00,52.5,39.5,17.72,SW,225,0.0,0.0,61,0.00,,,0.00,VWS V14.01,2013-10-08 23:39:00,
2013-10-08 19:44:00,52.2,39.5,17.72,SW,225,0.0,0.0,62,0.00,,,0.00,VWS V14.01,2013-10-08 23:44:00,
2013-10-08 19:49:00,51.8,39.6,17.72,SW,225,0.0,0.0,63,0.00,,,0.00,VWS V14.01,2013-10-08 23:49:00,
2013-10-08 19:54:00,51.8,39.6,17.72,SW,225,0.0,0.0,63,0.00,,,0.00,VWS V14.01,2013-10-08 23:54:00,
2013-10-08 19:59:00,51.3,39.9,17.72,SW,225,0.0,0.0,65,0.00,,,0.00,VWS V14.01,2013-10-08 23:59:00,
2013-10-08 20:04:00,50.9,39.6,17.72,SW,225,0.0,0.0,65,0.00,,,0.00,VWS V14.01,2013-10-09 00:04:00,
2013-10-08 20:09:00,50.7,39.8,17.72,SW,225,0.0,0.0,66,0.00,,,0.00,VWS V14.01,2013-10-09 00:09:00,
2013-10-08 20:14:00,50.5,40.0,17.72,SW,225,0.0,0.0,67,0.00,,,0.00,VWS V14.01,2013-10-09 00:14:00,
2013-10-08 20:19:00,50.4,39.8,17.72,SW,225,0.0,0.0,67,0.00,,,0.00,VWS V14.01,2013-10-09 00:19:00,
2013-10-08 20:24:00,50.2,39.7,17.72,SW,225,0.0,0.0,67,0.00,,,0.00,VWS V14.01,2013-10-09 00:24:00,
2013-10-08 20:29:00,50.2,40.0,17.72,SW,225,0.0,0.0,68,0.00,,,0.00,VWS V14.01,2013-10-09 00:29:00,
2013-10-08 20:34:00,50.2,40.0,17.72,SW,225,0.0,0.0,68,0.00,,,0.00,VWS V14.01,2013-10-09 00:34:00,
2013-10-08 20:39:00,49.8,40.1,17.72,SW,225,0.0,0.0,69,0.00,,,0.00,VWS V14.01,2013-10-09 00:39:00,
2013-10-08 20:44:00,49.5,40.1,17.72,SW,225,0.0,0.0,70,0.00,,,0.00,VWS V14.01,2013-10-09 00:44:00,
2013-10-08 20:49:00,49.5,40.1,17.72,SW,225,0.0,0.0,70,0.00,,,0.00,VWS V14.01,2013-10-09 00:49:00,
2013-10-08 20:54:00,49.1,40.1,17.72,SW,225,0.0,0.0,71,0.00,,,0.00,VWS V14.01,2013-10-09 00:54:00,
2013-10-08 20:59:00,48.9,39.9,17.72,SW,225,0.0,0.0,71,0.00,,,0.00,VWS V14.01,2013-10-09 00:59:00,
2013-10-08 21:04:00,48.7,39.8,17.72,SW,225,0.0,0.0,71,0.00,,,0.00,VWS V14.01,2013-10-09 01:04:00,
2013-10-08 21:09:00,48.6,40.0,17.72,SW,225,0.0,0.0,72,0.00,,,0.00,VWS V14.01,2013-10-09 01:09:00,
2013-10-08 21:14:00,48.6,40.3,17.72,SW,225,0.0,0.0,73,0.00,,,0.00,VWS V14.01,2013-10-09 01:14:00,
2013-10-08 21:19:00,48.4,40.1,17.72,SW,225,0.0,0.0,73,0.00,,,0.00,VWS V14.01,2013-10-09 01:19:00,
2013-10-08 21:24:00,48.2,40.0,17.72,SW,225,0.0,0.0,73,0.00,,,0.00,VWS V14.01,2013-10-09 01:24:00,
2013-10-08 21:29:00,48.0,40.1,17.72,SW,225,0.0,0.0,74,0.00,,,0.00,VWS V14.01,2013-10-09 01:29:00,
2013-10-08 21:34:00,47.8,40.0,17.72,SW,225,0.0,0.0,74,0.00,,,0.00,VWS V14.01,2013-10-09 01:34:00,
2013-10-08 21:39:00,47.7,40.1,17.72,SW,225,0.0,0.0,75,0.00,,,0.00,VWS V14.01,2013-10-09 01:39:00,
2013-10-08 21:44:00,47.5,40.0,17.72,SW,225,0.0,0.0,75,0.00,,,0.00,VWS V14.01,2013-10-09 01:44:00,
2013-10-08 21:49:00,47.5,40.0,17.72,SW,225,0.0,0.0,75,0.00,,,0.00,VWS V14.01,2013-10-09 01:49:00,
2013-10-08 21:54:00,47.5,40.0,17.72,SW,225,0.0,0.0,75,0.00,,,0.00,VWS V14.01,2013-10-09 01:54:00,
2013-10-08 21:59:00,47.3,40.1,17.72,SW,225,0.0,0.0,76,0.00,,,0.00,VWS V14.01,2013-10-09 01:59:00,
2013-10-08 22:04:00,47.1,40.0,17.72,SW,225,0.0,0.0,76,0.00,,,0.00,VWS V14.01,2013-10-09 02:04:00,
2013-10-08 22:09:00,46.9,39.8,17.72,SW,225,0.0,0.0,76,0.00,,,0.00,VWS V14.01,2013-10-09 02:09:00,
2013-10-08 22:14:00,46.8,39.6,17.72,SW,225,0.0,0.0,76,0.00,,,0.00,VWS V14.01,2013-10-09 02:14:00,
2013-10-08 22:19:00,46.8,39.6,17.72,SW,225,0.0,0.0,76,0.00,,,0.00,VWS V14.01,2013-10-09 02:19:00,
2013-10-08 22:24:00,46.4,39.6,17.72,SW,225,0.0,0.0,77,0.00,,,0.00,VWS V14.01,2013-10-09 02:24:00,
2013-10-08 22:29:00,46.2,39.4,17.72,SW,225,0.0,0.0,77,0.00,,,0.00,VWS V14.01,2013-10-09 02:29:00,
2013-10-08 22:34:00,46.0,39.6,17.72,SW,225,0.0,0.0,78,0.00,,,0.00,VWS V14.01,2013-10-09 02:34:00,
2013-10-08 22:39:00,45.9,39.4,17.72,SW,225,0.0,0.0,78,0.00,,,0.00,VWS V14.01,2013-10-09 02:39:00,
2013-10-08 22:44:00,45.9,39.4,17.72,SW,225,0.0,0.0,78,0.00,,,0.00,VWS V14.01,2013-10-09 02:44:00,
2013-10-08 22:49:00,45.7,39.5,17.72,SW,225,0.0,0.0,79,0.00,,,0.00,VWS V14.01,2013-10-09 02:49:00,
2013-10-08 22:54:00,45.5,39.4,17.72,SW,225,0.0,0.0,79,0.00,,,0.00,VWS V14.01,2013-10-09 02:54:00,
2013-10-08 22:59:00,45.5,39.4,17.72,SW,225,0.0,0.0,79,0.00,,,0.00,VWS V14.01,2013-10-09 02:59:00,
2013-10-08 23:04:00,45.3,39.2,17.72,SW,225,0.0,0.0,79,0.00,,,0.00,VWS V14.01,2013-10-09 03:04:00,
2013-10-08 23:09:00,45.3,39.2,17.72,SW,225,0.0,0.0,79,0.00,,,0.00,VWS V14.01,2013-10-09 03:09:00,
2013-10-08 23:14:00,45.0,39.2,17.72,SW,225,0.0,0.0,80,0.00,,,0.00,VWS V14.01,2013-10-09 03:14:00,
2013-10-08 23:19:00,44.8,39.0,17.72,SW,225,0.0,0.0,80,0.00,,,0.00,VWS V14.01,2013-10-09 03:19:00,
2013-10-08 23:24:00,44.8,39.0,17.72,SW,225,0.0,0.0,80,0.00,,,0.00,VWS V14.01,2013-10-09 03:24:00,
2013-10-08 23:29:00,44.8,39.0,17.72,SW,225,0.0,0.0,80,0.00,,,0.00,VWS V14.01,2013-10-09 03:29:00,
2013-10-08 23:34:00,44.6,39.1,17.72,SW,225,0.0,0.0,81,0.00,,,0.00,VWS V14.01,2013-10-09 03:34:00,
2013-10-08 23:39:00,44.4,39.3,17.72,SW,225,0.0,0.0,82,0.00,,,0.00,VWS V14.01,2013-10-09 03:39:00,
2013-10-08 23:44:00,44.2,39.1,17.72,SW,225,0.0,0.0,82,0.00,,,0.00,VWS V14.01,2013-10-09 03:44:00,
2013-10-08 23:49:00,44.2,39.1,17.72,SW,225,0.0,0.0,82,0.00,,,0.00,VWS V14.01,2013-10-09 03:49:00,
2013-10-08 23:54:00,44.1,38.9,17.72,SW,225,0.0,0.0,82,0.00,,,0.00,VWS V14.01,2013-10-09 03:54:00,
2013-10-08 23:59:00,44.1,39.2,17.72,SW,225,0.0,0.0,83,0.00,,,0.00,VWS V14.01,2013-10-09 03:59:00,